ギブス彗星

313P/Gibbs (2014)

English version
Home page
Updated on May 8, 2015

---------------------------------------------------------------------

・ プロフィール

符号 313P/2014 S4
発見日 2014年9月24日
発見光度 19.5等
発見者 A. R. Gibbs (Catalina Sky Survey)

・ 軌道要素

Epoch 2014 Aug. 11.0 TT = JDT 2456880.5
T 2014 Aug. 28.49407 TT                                 MPCW
q   2.3916261            (2000.0)            P               Q
n   0.17587693     Peri.  253.50257     +0.98321102     -0.00497174
a   3.1549813      Node   106.49740     +0.06799379     +0.93761958
e   0.2419524      Incl.   10.96655     -0.16933085     +0.34762739
P   5.60
From 90 observations 2003 Sept. 22-2014 Nov. 28, mean residual 0".7.

・ 光度変化

        m1 = 14.5 + 5 logΔ + 10.0 log r

---------------------------------------------------------------------

軌道要素はM.P.E.C. 2015-E14に掲載されたものです。
光度グラフはComet for Windowsで作成したものです。

---------------------------------------------------------------------

Copyright(C) Seiichi Yoshida (comet@aerith.net). All rights reserved.